Weather in Oksino

Russia / Nenets Autonomous Okrug     67°34′59″N   52°10′51″E
temp.,
°C
wind,
m/s
gust,
m/s
humid.,
%
clouds,
%
prec.,
mm/h
press.,
hPa
HPBL,
m
12 august, fri
fri1200:00+14sw71397100 5.0 1001669
03:00+13wnw489527 7.3 1002295
06:00+12wnw57873 0.0 1002333
09:00+16w456431 0.0 1003804
12:00+16wsw677293 1.1 10021052
15:00+14nw9117634 3.4 10041086
18:00+13wnw7117024 0.3 10051159
21:00+9w6138222 0.3 1005548
13 august, sat
sat1300:00+10w8148099 0.1 1005843
03:00+10w91577100 0.1 1005906
06:00+10w10148383 0.1 1005783
09:00+10w10158997 0.4 1005898
12:00+12wnw111670100 0.3 10061525
15:00+10wnw111686100 0.5 10081425
18:00+9wnw91484100 0.3 10101039
21:00+8wnw7149157 0.4 1012587
14 august, sun
sun1400:00+6wnw6139435 0.0 1013423
03:00+6wnw51293100 0.0 1015343
06:00+8nw61076100 0.0 10161136
09:00+9wnw61074100 0.1 10171167
12:00+11nw71062100 0.1 10181486
15:00+12nw6959100 0.1 10191358
18:00+11wnw2471100 0.1 1019195
21:00+7wnw2284100 0.1 101911
15 august, mon
mon1500:00+7sw3381100 0.0 101823
03:00+8ssw4779100 0.0 1018116
06:00+11sw597789 0.0 1017310
09:00+13w6880100 0.3 1016859
12:00+14wnw7956100 0.1 10171181
15:00+13wnw71064100 0.1 10181357
18:00+12nw710674 0.1 1019992
21:00+8wnw612948 0.1 1020392
16 august, tue
tue1600:00+9nw71075100 0.0 1021811
03:00+9nw6969100 0.0 1023952
06:00+10nw586377 0.0 10241094
09:00+13nw795799 0.0 10241137
12:00+12wnw4668100 0.1 1025700
15:00+11wsw0174100 0.1 1025138
18:00+11s3581100 0.3 1024160
21:00+11s499194 0.6 1022213